Location: Unspecified
(0.0000°N, 0.0000°E)
Time: 13:35:07
(UTC+00:00)

Hubble Space Telescope - Pass Details

Date: 12 April 2021
Orbit: 535 x 539 km, 28.5° (Epoch: 16 April)

Event Time Altitude Azimuth Distance (km) Brightness Sun altitude
Rises 18:42:20 0° 222° (SW) 2,675 4.8 -10.3°
Reaches altitude 10° 18:44:51 10° 210° (SSW) 1,783 3.7 -10.9°
Maximum altitude 18:48:23 27° 151° (SSE) 1,039 1.9 -11.8°
Enters shadow 18:50:25 18° 107° (ESE) 1,331 2.1 -12.3°
